Terminal Aerodrome Forecast
Issued by NWS

Current Version | Previous Version | Graphics & Text | Print | Product List | Glossary On
Versions: 1 2 3 4 5 6 7 8 9 10 11 12 13 14 15 16 17 18 19 20 21 22 23 24 25 26 27 28 29 30 31 32 33 34 35 36 37 38 39 40 41 42 43 44 45 46 47 48 49 50
000
FTUS41 KRNK 032053 AAA
TAFLWB
TAF AMD
KLWB 032053Z 0321/0418 04003KT 3SM -RA BR OVC003
     FM032200 22005KT 4SM -RA BR OVC006
     FM040700 25003KT 2SM BR OVC007 WS020/25051KT
     FM041300 33002KT 1/4SM -RA FG OVC003=

USA.gov is the U.S. government's official web portal to all federal, state and local government web resources and services.